Location: Demre
(36.2444°N, 29.9850°E)
Time: 06:02:00
(UTC+00:00)

CSL-04 Debris - Pass Details

Date: 11 March 2026
Orbit: 819 x 839 km, 98.7° (Epoch: 21 April)

Event Time Altitude Azimuth Distance (km) Brightness Sun altitude
Exits shadow 18:16:53 36° 193° (SSW) 1,286 5.0 -27.3°
Maximum altitude 18:18:59 62° 258° (WSW) 925 4.5 -27.7°
Drops below altitude 10° 18:24:18 10° 340° (NNW) 2,427 7.0 -28.8°
Sets 18:26:42 0° 343° (NNW) 3,361 7.8 -29.2°
